Newton, KS

5:26 AM CDT on September 20, 2019 (GMT -0500)
Newton City County

Weather History for KEWK - July, 2019

Change the Weather History Date:

Sunday, July 14, 2019

  Actual Average Record
Temperature  
Mean Temperature 80 °F -  
Max Temperature 90 °F 89 °F 107 °F (2003)
Min Temperature 69 °F 67 °F 60 °F (2008)
Cooling Degree Days 14    
Growing Degree Days 30 (Base 50)    
Moisture  
Dew Point 69 °F    
Average Humidity 71    
Maximum Humidity 90    
Minimum Humidity 50    
Precipitation  
Precipitation 0.00 in - - ()
Sea Level Pressure  
Sea Level Pressure 30.01 in    
Wind  
Wind Speed 6 mph (ESE)    
Max Wind Speed 10 mph    
Max Gust Speed 18 mph    
Visibility 10 miles    
Events      
Averages and records for this station are not official NWS values.
T = Trace of Precipitation, MM = Missing Value Source: NWS Daily Summary

Daily Weather History Graph

Daily Weather History Graph

Search for Another Location

Airport or City:

Astronomy

Jul. 14, 2019 Rise Set
Actual Time 6:17 AM CDT 8:52 PM CDT
Civil Twilight 5:46 AM CDT 9:22 PM CDT
Nautical Twilight 5:08 AM CDT 10:00 PM CDT
Astronomical Twilight 4:26 AM CDT 10:43 PM CDT
Moon 7:15 PM CDT (7/14) 4:19 AM CDT (7/14)
Length of Visible Light 15h 35m
Length of Day
14h 34m
Waxing Gibbous, 95% of the Moon is Illuminated
Jul 14
Waxing Gibbous
Jul 16
Full
Jul 24
Last Quarter
Jul 31
New
Aug 7
First Quarter

Hourly Weather History & Observations

Time (CDT) Temp. Heat Index Dew Point Humidity Pressure Visibility Wind Dir Wind Speed Gust Speed Precip Events Conditions
12:56 AM 71.1 °F - 66.0 °F 84% 30.03 in 10.0 mi North - - N/A   Clear
1:56 AM 70.0 °F - 66.0 °F 87% 30.02 in 10.0 mi ESE 5.8 mph - N/A   Clear
2:56 AM 71.1 °F - 66.0 °F 84% 30.02 in 10.0 mi East 4.6 mph - N/A   Clear
3:56 AM 70.0 °F - 66.0 °F 87% 30.01 in 10.0 mi ESE 5.8 mph - N/A   Clear
4:56 AM 70.0 °F - 66.0 °F 87% 30.01 in 10.0 mi ESE 4.6 mph - N/A   Clear
5:56 AM 69.1 °F - 66.0 °F 90% 30.02 in 10.0 mi ENE 4.6 mph - N/A   Clear
6:56 AM 70.0 °F - 66.0 °F 87% 30.04 in 10.0 mi ENE 3.5 mph - N/A   Clear
7:56 AM 73.9 °F - 68.0 °F 82% 30.04 in 10.0 mi East 4.6 mph - N/A   Clear
8:56 AM 79.0 °F - 71.1 °F 77% 30.06 in 10.0 mi SE 9.2 mph - N/A   Clear
9:56 AM 82.0 °F 86.7 °F 72.0 °F 71% 30.05 in 10.0 mi ESE 9.2 mph - N/A   Clear
10:56 AM 84.0 °F 89.6 °F 72.0 °F 67% 30.05 in 10.0 mi Variable 3.5 mph - N/A   Partly Cloudy
11:56 AM 84.9 °F 90.1 °F 71.1 °F 63% 30.04 in 10.0 mi SE 9.2 mph - N/A   Mostly Cloudy
12:56 PM 87.1 °F 92.8 °F 71.1 °F 59% 30.03 in 10.0 mi SE 6.9 mph - N/A   Partly Cloudy
1:56 PM 88.0 °F 93.8 °F 71.1 °F 57% 30.02 in 10.0 mi ESE 6.9 mph - N/A   Partly Cloudy
2:56 PM 89.1 °F 93.7 °F 69.1 °F 52% 30.00 in 10.0 mi ESE 10.4 mph - N/A   Partly Cloudy
3:56 PM 90.0 °F 95.4 °F 70.0 °F 52% 29.99 in 10.0 mi ESE 10.4 mph 18.4 mph N/A   Partly Cloudy
4:56 PM 90.0 °F 94.5 °F 69.1 °F 50% 29.97 in 10.0 mi ESE 8.1 mph - N/A   Clear
5:56 PM 89.1 °F 93.7 °F 69.1 °F 52% 29.96 in 10.0 mi East 8.1 mph - N/A   Clear
6:56 PM 88.0 °F 92.1 °F 69.1 °F 53% 29.95 in 10.0 mi ESE 9.2 mph - N/A   Clear
7:56 PM 86.0 °F 91.5 °F 71.1 °F 61% 29.95 in 10.0 mi ESE 10.4 mph - N/A   Partly Cloudy
8:56 PM 82.0 °F 86.3 °F 71.1 °F 69% 29.94 in 10.0 mi SE 10.4 mph - N/A   Clear
9:56 PM 79.0 °F - 71.1 °F 77% 29.96 in 10.0 mi SE 9.2 mph - N/A   Clear
10:56 PM 75.9 °F - 70.0 °F 82% 29.98 in 10.0 mi SE 4.6 mph - N/A   Clear
11:56 PM 75.0 °F - 70.0 °F 84% 29.99 in 10.0 mi SE 4.6 mph - N/A   Clear